FW1762 Weather Reports


Display with metric or nautical units.
time (UTC)temp
F
wind
direction
speed
MPH
gust
MPH
rain 1hr
in
rain 24hr
in
rain mn
in
humidity
%
barometer
mb
20260510124819 56 44 0.0 0.0 0.00 0.00 0.00 69 1016.3
20260510124042 56 20 0.0 0.0 0.00 0.00 0.00 68 1016.3
20260510123543 56 46 0.0 0.0 0.00 0.00 0.00 69 1016.6
20260510123045 56 123 0.0 0.0 0.00 0.00 0.00 68 1016.6
20260510122543 56 124 0.0 0.0 0.00 0.00 0.00 68 1016.6
20260510122045 56 61 0.0 0.0 0.00 0.00 0.00 69 1016.6
20260510121544 56 76 0.0 0.0 0.00 0.00 0.00 68 1016.6
20260510121045 56 49 0.0 0.0 0.00 0.00 0.00 68 1016.6
20260510120543 56 337 0.0 0.0 0.00 0.00 0.00 68 1016.6
20260510120044 57 284 0.0 0.0 0.00 0.00 0.00 68 1016.6
20260510115544 57 72 0.0 0.0 0.00 0.00 0.00 67 1016.6
20260510115042 57 123 0.0 0.0 0.00 0.00 0.00 67 1016.6
20260510114543 57 12 0.0 1.0 0.00 0.00 0.00 66 1016.6
20260510114042 57 123 0.0 1.0 0.00 0.00 0.00 66 1016.6
20260510113542 57 44 0.0 0.0 0.00 0.00 0.00 66 1016.6
20260510113043 57 36 0.0 0.0 0.00 0.00 0.00 67 1016.9
20260510112542 57 87 0.0 1.0 0.00 0.00 0.00 66 1016.9
20260510112042 57 220 1.0 1.0 0.00 0.00 0.00 66 1016.9
20260510111543 57 5 1.0 1.0 0.00 0.00 0.00 65 1016.9
20260510111044 58 23 1.0 1.0 0.00 0.00 0.00 65 1016.9
20260510110543 58 79 0.0 0.0 0.00 0.00 0.00 65 1016.9
20260510110042 58 74 0.0 0.0 0.00 0.00 0.00 66 1016.9
20260510105541 58 348 1.0 1.0 0.00 0.00 0.00 67 1017.3
20260510105040 57 113 1.0 1.0 0.00 0.00 0.00 69 1017.3
20260510104540 56 98 1.0 1.0 0.00 0.00 0.00 70 1017.3
20260510104039 56 38 1.0 1.0 0.00 0.00 0.00 69 1017.3
20260510103541 56 89 0.0 0.0 0.00 0.00 0.00 69 1017.3
20260510103043 55 245 0.0 0.0 0.00 0.00 0.00 71 1017.3
20260510102540 55 238 0.0 0.0 0.00 0.00 0.00 71 1017.3
20260510102041 55 120 0.0 0.0 0.00 0.00 0.00 72 1017.3
20260510101541 55 321 0.0 0.0 0.00 0.00 0.00 72 1016.9
20260510101038 54 111 0.0 0.0 0.00 0.00 0.00 73 1017.3
20260510100540 54 124 0.0 1.0 0.00 0.00 0.00 73 1017.3
20260510100041 54 65 0.0 1.0 0.00 0.00 0.00 73 1017.3
20260510095539 54 47 0.0 1.0 0.00 0.00 0.00 73 1017.3
20260510095041 54 71 1.0 1.0 0.00 0.00 0.00 73 1017.3
20260510094540 54 131 1.0 1.0 0.00 0.00 0.00 73 1017.3
20260510094038 54 124 0.0 0.0 0.00 0.00 0.00 73 1017.3
20260510093539 54 65 0.0 0.0 0.00 0.00 0.00 74 1017.3
20260510093039 53 118 0.0 0.0 0.00 0.00 0.00 74 1017.3
20260510092537 53 360 0.0 1.0 0.00 0.00 0.00 75 1017.3
20260510092042 53 90 0.0 0.0 0.00 0.00 0.00 75 1017.3
20260510091538 53 316 0.0 0.0 0.00 0.00 0.00 76 1017.3
20260510091041 53 105 0.0 0.0 0.00 0.00 0.00 75 1017.6
20260510090538 53 53 0.0 0.0 0.00 0.00 0.00 76 1017.6
20260510090038 53 321 0.0 0.0 0.00 0.00 0.00 77 1017.6
20260510085537 53 38 1.0 1.0 0.00 0.00 0.00 77 1017.6
20260510085037 53 35 1.0 1.0 0.00 0.00 0.00 77 1017.6
20260510084537 53 304 1.0 1.0 0.00 0.00 0.00 78 1017.6
20260510084038 53 283 1.0 1.0 0.00 0.00 0.00 77 1017.9
20260510083537 53 315 1.0 2.0 0.00 0.00 0.00 77 1017.9
20260510083038 53 98 0.0 2.0 0.00 0.00 0.00 77 1017.9
20260510082537 53 69 1.0 1.0 0.00 0.00 0.00 78 1017.9
20260510082038 52 256 1.0 1.0 0.00 0.00 0.00 78 1017.9
20260510081537 52 59 1.0 1.0 0.00 0.00 0.00 78 1017.9
20260510081035 52 143 1.0 1.0 0.00 0.00 0.00 78 1017.9
20260510080537 52 59 0.0 0.0 0.00 0.00 0.00 79 1017.9
20260510080038 52 300 0.0 0.0 0.00 0.00 0.00 80 1017.9
20260510075537 52 112 0.0 0.0 0.00 0.00 0.00 80 1017.9
20260510075036 52 192 0.0 0.0 0.00 0.00 0.00 80 1017.9
20260510074535 51 66 1.0 2.0 0.00 0.00 0.00 80 1017.9
20260510074034 51 345 2.0 2.0 0.00 0.00 0.00 80 1017.9
20260510073536 51 120 2.0 3.0 0.00 0.00 0.00 80 1017.9
20260510073034 51 313 2.0 2.0 0.00 0.00 0.00 81 1017.9
20260510072534 51 110 2.0 3.0 0.00 0.00 0.00 81 1017.9
20260510072036 51 51 2.0 2.0 0.00 0.00 0.00 81 1017.9
20260510071534 51 289 0.0 0.0 0.00 0.00 0.00 82 1017.6
20260510071034 51 10 0.0 0.0 0.00 0.00 0.00 82 1017.9
20260510070533 51 43 1.0 2.0 0.00 0.00 0.00 82 1017.9
20260510070036 51 51 2.0 2.0 0.00 0.00 0.00 82 1017.9
20260510065534 50 16 1.0 4.0 0.00 0.00 0.00 83 1017.9
20260510065034 50 113 0.0 0.0 0.00 0.00 0.00 84 1017.9
20260510064534 50 40 0.0 1.0 0.00 0.00 0.00 84 1017.9
20260510064032 50 222 1.0 1.0 0.00 0.00 0.00 84 1017.9
20260510063532 50 360 1.0 5.0 0.00 0.00 0.00 84 1017.9
20260510063033 50 53 1.0 1.0 0.00 0.00 0.00 84 1017.9
20260510062535 50 69 1.0 1.0 0.00 0.00 0.00 84 1017.6
20260510062034 50 134 1.0 1.0 0.00 0.00 0.00 85 1017.6
20260510061532 50 285 2.0 2.0 0.00 0.00 0.00 85 1017.6
20260510061032 50 42 2.0 2.0 0.00 0.00 0.00 85 1017.6
20260510060531 50 105 1.0 4.0 0.00 0.00 0.00 85 1017.6
20260510060033 50 19 1.0 1.0 0.00 0.00 0.00 85 1017.6
20260510055531 50 42 1.0 5.0 0.00 0.00 0.00 85 1017.6
20260510055034 50 17 1.0 2.0 0.00 0.00 0.00 85 1017.6
20260510054530 50 32 1.0 2.0 0.00 0.00 0.00 86 1017.3
20260510054032 50 247 1.0 1.0 0.00 0.00 0.00 85 1017.6
20260510053535 49 5 0.0 1.0 0.00 0.00 0.00 86 1017.6
20260510053129 49 100 1.0 1.0 0.00 0.00 0.00 86 1017.6
20260510052641 49 338 0.0 0.0 0.00 0.00 0.00 86 1017.6
20260510052239 49 87 0.0 0.0 0.00 0.00 0.00 86 1017.6
20260510051830 49 88 0.0 0.0 0.00 0.00 0.00 86 1017.6
20260510051031 49 9 0.0 0.0 0.00 0.00 0.00 86 1017.6
20260510050529 49 105 0.0 0.0 0.00 0.00 0.00 86 1017.3
20260510050031 49 307 0.0 0.0 0.00 0.00 0.00 86 1017.3
20260510045529 49 69 0.0 0.0 0.00 0.00 0.00 87 1017.6
20260510045030 49 275 0.0 0.0 0.00 0.00 0.00 87 1017.3
20260510044529 49 27 0.0 0.0 0.00 0.00 0.00 86 1017.3
20260510044030 49 94 0.0 0.0 0.00 0.00 0.00 87 1017.3
20260510043539 49 71 0.0 0.0 0.00 0.00 0.00 87 1017.6
20260510043130 49 55 0.0 0.0 0.00 0.00 0.00 87 1017.6
20260510042640 49 62 0.0 0.0 0.00 0.00 0.00 87 1017.6
20260510042226 49 343 0.0 0.0 0.00 0.00 0.00 87 1017.6
20260510041741 49 71 0.0 0.0 0.00 0.00 0.00 87 1017.6
20260510041328 49 59 0.0 0.0 0.00 0.00 0.00 87 1017.6
20260510040529 49 36 0.0 0.0 0.00 0.00 0.00 87 1017.6
20260510040030 49 119 0.0 0.0 0.00 0.00 0.00 87 1017.6
20260510035527 49 65 0.0 0.0 0.00 0.00 0.00 87 1017.6
20260510035027 49 59 0.0 0.0 0.00 0.00 0.00 87 1017.6
20260510034531 49 57 0.0 0.0 0.00 0.00 0.00 87 1017.6
20260510034028 49 139 0.0 0.0 0.00 0.00 0.00 86 1017.6
20260510033527 49 11 0.0 1.0 0.00 0.00 0.00 86 1017.6
20260510033027 49 75 0.0 0.0 0.00 0.00 0.00 86 1017.6
20260510032526 49 312 0.0 0.0 0.00 0.00 0.00 86 1017.9
20260510032029 49 62 0.0 0.0 0.00 0.00 0.00 86 1017.9
20260510031529 49 45 0.0 0.0 0.00 0.00 0.00 86 1017.9
20260510031026 50 112 0.0 0.0 0.00 0.00 0.00 86 1017.9
20260510030528 50 346 0.0 0.0 0.00 0.00 0.00 86 1017.9
20260510030027 50 92 0.0 0.0 0.00 0.00 0.00 85 1017.9
20260510025526 50 308 0.0 0.0 0.00 0.00 0.00 85 1017.9
20260510025027 50 296 0.0 0.0 0.00 0.00 0.00 85 1017.9
20260510024527 50 40 0.0 0.0 0.00 0.00 0.00 85 1017.9
20260510024027 50 39 0.0 0.0 0.00 0.00 0.00 85 1017.9
20260510023527 50 57 0.0 0.0 0.00 0.00 0.00 85 1017.9
20260510023025 50 69 0.0 0.0 0.00 0.00 0.00 85 1017.9
20260510022526 50 86 0.0 0.0 0.00 0.00 0.00 84 1017.9
20260510022026 50 38 0.0 0.0 0.00 0.00 0.00 84 1017.9
20260510021525 50 58 0.0 0.0 0.00 0.00 0.00 84 1017.9
20260510021026 51 292 0.0 0.0 0.00 0.00 0.00 83 1017.9
20260510020525 51 39 0.0 0.0 0.00 0.00 0.00 83 1017.9
20260510020024 51 107 0.0 0.0 0.00 0.00 0.00 82 1017.9
20260510015525 51 27 0.0 0.0 0.00 0.00 0.00 81 1017.6
20260510015024 51 177 0.0 0.0 0.00 0.00 0.00 80 1017.6
20260510014541 51 52 0.0 0.0 0.00 0.00 0.00 78 1017.6
20260510014124 51 62 0.0 0.0 0.00 0.00 0.00 77 1017.6
20260510013641 51 37 0.0 0.0 0.00 0.00 0.00 76 1017.9
20260510013223 51 171 0.0 0.0 0.00 0.00 0.00 75 1017.9
20260510012739 52 319 0.0 0.0 0.00 0.00 0.00 74 1017.6
20260510012322 52 355 0.0 0.0 0.00 0.00 0.00 73 1017.9
20260510011524 52 271 0.0 0.0 0.00 0.00 0.00 71 1017.9
20260510011023 52 49 0.0 0.0 0.00 0.00 0.00 71 1017.9
20260510010524 52 329 0.0 0.0 0.00 0.00 0.00 70 1017.9
20260510010040 53 98 0.0 0.0 0.00 0.00 0.00 69 1017.9
20260510005538 53 75 0.0 0.0 0.00 0.00 0.00 69 1017.9
20260510005122 53 59 0.0 0.0 0.00 0.00 0.00 70 1017.9
20260510004638 53 311 0.0 0.0 0.00 0.00 0.00 70 1017.9
20260510004222 53 91 0.0 0.0 0.00 0.00 0.00 69 1017.6
20260510003741 53 44 0.0 1.0 0.00 0.00 0.00 68 1017.6
20260510003322 53 33 0.0 1.0 0.00 0.00 0.00 68 1017.6
20260510002524 54 31 0.0 0.0 0.00 0.00 0.00 67 1017.6
20260510002042 54 38 0.0 0.0 0.00 0.00 0.00 66 1017.6
20260510001637 54 67 0.0 0.0 0.00 0.00 0.00 66 1017.9
20260510001219 54 321 0.0 0.0 0.00 0.00 0.00 66 1017.9
20260510000741 54 15 0.0 0.0 0.00 0.00 0.00 66 1017.9
20260510000321 54 192 0.0 0.0 0.00 0.00 0.00 65 1017.9
20260509235536 54 63 0.0 0.0 0.00 0.00 0.00 65 1017.6
20260509235036 54 51 0.0 0.0 0.00 0.00 0.00 65 1017.9
20260509234620 54 49 0.0 0.0 0.00 0.00 0.00 65 1017.6
20260509234142 54 59 0.0 0.0 0.00 0.00 0.00 65 1017.6
20260509233718 54 71 0.0 0.0 0.00 0.00 0.00 65 1017.6
20260509233236 54 98 0.0 0.0 0.00 0.00 0.00 65 1017.6
20260509232819 55 28 0.0 0.0 0.00 0.00 0.00 65 1017.6
20260509232019 55 56 0.0 0.0 0.00 0.00 0.00 64 1017.6
20260509231541 55 74 0.0 0.0 0.00 0.00 0.00 64 1017.6
20260509231140 55 33 0.0 0.0 0.00 0.00 0.00 64 1017.6
20260509230718 55 119 0.0 0.0 0.00 0.00 0.00 63 1017.6
20260509230238 55 59 0.0 0.0 0.00 0.00 0.00 62 1017.6
20260509225817 55 132 0.0 0.0 0.00 0.00 0.00 62 1017.6
20260509225042 55 134 0.0 0.0 0.00 0.00 0.00 61 1017.6
20260509224640 55 148 0.0 0.0 0.00 0.00 0.00 61 1017.6
20260509224235 55 92 0.0 0.0 0.00 0.00 0.00 60 1017.6
20260509223817 55 51 0.0 0.0 0.00 0.00 0.00 59 1017.6
20260509223041 55 41 0.0 0.0 0.00 0.00 0.00 58 1017.6
20260509222536 55 61 0.0 0.0 0.00 0.00 0.00 58 1017.6
20260509222116 55 78 0.0 0.0 0.00 0.00 0.00 58 1017.6
20260509221641 55 102 0.0 0.0 0.00 0.00 0.00 57 1017.6
20260509221216 55 88 0.0 0.0 0.00 0.00 0.00 57 1017.6
20260509220741 56 66 0.0 4.0 0.00 0.00 0.00 57 1017.6
20260509220316 56 47 0.0 4.0 0.00 0.00 0.00 56 1017.6
20260509215543 56 105 0.0 0.0 0.00 0.00 0.00 56 1017.6
20260509215050 56 33 0.0 0.0 0.00 0.00 0.00 56 1017.6
20260509214635 56 41 0.0 0.0 0.00 0.00 0.00 55 1017.6
20260509214214 56 38 0.0 0.0 0.00 0.00 0.00 55 1017.9
20260509213739 56 107 0.0 0.0 0.00 0.00 0.00 54 1017.9
20260509213316 57 44 0.0 0.0 0.00 0.00 0.00 53 1017.9
20260509212542 57 110 0.0 0.0 0.00 0.00 0.00 53 1017.9
20260509212137 57 42 0.0 0.0 0.00 0.00 0.00 52 1017.6
20260509211735 57 88 0.0 0.0 0.00 0.00 0.00 51 1017.6
20260509211315 58 63 0.0 0.0 0.00 0.00 0.00 51 1017.6
20260509210539 58 78 0.0 0.0 0.00 0.00 0.00 50 1017.6
20260509210136 58 96 0.0 0.0 0.00 0.00 0.00 50 1017.3
20260509205720 58 117 0.0 0.0 0.00 0.00 0.00 50 1017.3
20260509205238 58 122 0.0 0.0 0.00 0.00 0.00 49 1017.3
20260509204813 58 35 0.0 0.0 0.00 0.00 0.00 48 1017.3
20260509204038 58 52 0.0 0.0 0.00 0.00 0.00 48 1017.3
20260509203542 59 67 0.0 0.0 0.00 0.00 0.00 48 1017.3
20260509203111 59 63 0.0 0.0 0.00 0.00 0.00 47 1017.3
20260509202643 59 58 0.0 0.0 0.00 0.00 0.00 46 1017.3
20260509202237 59 43 0.0 0.0 0.00 0.00 0.00 46 1017.3
20260509201812 59 93 0.0 0.0 0.00 0.00 0.00 45 1017.3
20260509201042 59 74 0.0 0.0 0.00 0.00 0.00 46 1016.9
20260509200641 60 118 0.0 0.0 0.00 0.00 0.00 46 1016.9
20260509200216 60 163 0.0 0.0 0.00 0.00 0.00 46 1016.9
20260509195741 60 65 0.0 3.0 0.00 0.00 0.00 47 1016.9
20260509195313 60 21 0.0 3.0 0.00 0.00 0.00 48 1016.9
20260509194538 60 117 0.0 0.0 0.00 0.00 0.00 49 1016.9
20260509194111 60 265 0.0 0.0 0.00 0.00 0.00 48 1016.9
20260509193636 60 71 0.0 0.0 0.00 0.00 0.00 48 1016.9
20260509193214 61 109 0.0 0.0 0.00 0.00 0.00 49 1016.9
20260509192743 61 67 0.0 0.0 0.00 0.00 0.00 48 1016.9
20260509192313 61 67 0.0 0.0 0.00 0.00 0.00 48 1016.6
20260509191540 61 54 0.0 0.0 0.00 0.00 0.00 47 1016.6
20260509191038 61 85 0.0 0.0 0.00 0.00 0.00 47 1016.6
20260509190613 62 30 0.0 0.0 0.00 0.00 0.00 46 1016.6
20260509190143 62 213 0.0 0.0 0.00 0.00 0.00 46 1016.6
20260509185713 62 171 0.0 0.0 0.00 0.00 0.00 46 1016.6
20260509185238 62 119 0.0 0.0 0.00 0.00 0.00 45 1016.6
20260509184811 62 109 0.0 0.0 0.00 0.00 0.00 46 1016.6
20260509184041 63 93 0.0 0.0 0.00 0.00 0.00 45 1016.6
20260509183638 63 98 0.0 0.0 0.00 0.00 0.00 46 1016.3
20260509183214 63 76 0.0 0.0 0.00 0.00 0.00 45 1016.3
20260509182809 63 140 0.0 0.0 0.00 0.00 0.00 46 1016.3
20260509182040 64 74 0.0 0.0 0.00 0.00 0.00 46 1016.3
20260509181612 64 78 0.0 1.0 0.00 0.00 0.00 46 1016.3
20260509181137 65 34 0.0 0.0 0.00 0.00 0.00 45 1016.3
20260509180712 65 78 0.0 0.0 0.00 0.00 0.00 45 1016.3
20260509180241 65 107 0.0 0.0 0.00 0.00 0.00 43 1016.3
20260509175813 65 110 0.0 4.0 0.00 0.00 0.00 42 1016.3
20260509175038 66 72 0.0 0.0 0.00 0.00 0.00 42 1015.9
20260509174541 66 126 0.0 0.0 0.00 0.00 0.00 42 1015.9
20260509174140 66 103 0.0 0.0 0.00 0.00 0.00 42 1015.9
20260509173739 67 123 1.0 3.0 0.00 0.00 0.00 41 1015.9
20260509173312 67 90 0.0 0.0 0.00 0.00 0.00 41 1015.9
20260509172610 68 94 0.0 0.0 0.00 0.00 0.00 41 1015.9
20260509172140 68 146 0.0 0.0 0.00 0.00 0.00 43 1015.9
20260509171714 68 94 0.0 0.0 0.00 0.00 0.00 42 1015.9
20260509171242 68 82 0.0 0.0 0.00 0.00 0.00 41 1015.9
20260509170539 69 91 0.0 0.0 0.00 0.00 0.00 40 1015.9
20260509170042 69 80 0.0 0.0 0.00 0.00 0.00 39 1015.9
20260509165614 69 113 0.0 1.0 0.00 0.00 0.00 39 1015.9
20260509165210 69 34 1.0 1.0 0.00 0.00 0.00 41 1015.9
20260509164741 69 108 0.0 2.0 0.00 0.00 0.00 40 1015.9
20260509164312 69 81 0.0 0.0 0.00 0.00 0.00 41 1015.9
20260509163541 69 41 1.0 1.0 0.00 0.00 0.00 39 1015.9
20260509163039 69 79 0.0 0.0 0.00 0.00 0.00 40 1015.9
20260509162539 69 94 0.0 0.0 0.00 0.00 0.00 40 1015.9
20260509162043 69 80 0.0 0.0 0.00 0.00 0.00 40 1015.9
20260509161539 69 49 0.0 0.0 0.00 0.00 0.00 40 1015.9
20260509161038 69 137 0.0 0.0 0.00 0.00 0.00 40 1015.9
20260509160613 69 59 0.0 0.0 0.00 0.00 0.00 40 1015.9
20260509160136 69 120 0.0 0.0 0.00 0.00 0.00 41 1016.3
20260509155713 69 102 0.0 1.0 0.00 0.00 0.00 39 1015.9
20260509155241 70 144 0.0 1.0 0.00 0.00 0.00 40 1015.9
20260509154810 70 16 0.0 0.0 0.00 0.00 0.00 39 1015.9
20260509154041 71 94 0.0 0.0 0.00 0.00 0.00 38 1016.3
20260509153541 71 90 0.0 0.0 0.00 0.00 0.00 38 1016.3
20260509153138 72 92 0.0 0.0 0.00 0.00 0.00 38 1016.3
20260509152736 72 22 0.0 0.0 0.00 0.00 0.00 37 1016.3
20260509152318 72 49 0.0 0.0 0.00 0.00 0.00 37 1016.3
20260509151841 73 127 0.0 0.0 0.00 0.00 0.00 35 1016.3
20260509151436 73 123 0.0 0.0 0.00 0.00 0.00 36 1016.3